Regional Weather Roundup
Issued by NWS

Home | Current Version | Previous Version | Text Only | Print | Product List | Glossary On
Versions: 1 2 3 4 5 6 7 8 9 10 11 12 13 14 15 16 17 18 19 20 21 22 23 24 25 26 27 28 29 30 31 32 33 34 35 36 37 38 39 40 41 42 43 44 45 46 47 48 49 50
000
ASUS43 KFSD 182010
RWRSD

WEATHER ROUNDUP FOR SOUTH DAKOTA
NATIONAL WEATHER SERVICE SIOUX FALLS SD
200 PM CST TUE FEB 18 2020

NOTE: "FAIR" INDICATES FEW OR NO CLOUDS BELOW 12,000 FEET WITH NO
SIGNIFICANT WEATHER AND/OR OBSTRUCTIONS TO VISIBILITY.


SDZ001>005-009-010-012>017-182100-
NORTHWEST AND NORTH CENTRAL SOUTH DAKOTA

CITY           SKY/WX    TMP DP  RH WIND       PRES   REMARKS
BUFFALO          N/A     15   5  64 N8        30.29F WCI   4
FAITH            N/A      9   2  73 N12       30.36F WCI  -6
MOBRIDGE       SUNNY      9  -3  58 N15       30.42F WCI  -8
$$

SDZ012>016-024>037-041>051-057-063-072>074-182100-
SOUTHWEST AND SOUTH CENTRAL SOUTH DAKOTA

CITY           SKY/WX    TMP DP  RH WIND       PRES   REMARKS
RAPID CTY ARPT CLOUDY    19  13  77 E7        30.30F WCI  10
PIERRE         LGT SNOW  11   6  81 N16       30.43R WCI  -6
CUSTER         LGT SNOW  20  17  88 S9        30.12S FOG     WCI   9
ELLSWORTH AFB  FLURRIES  19  12  73 NE8       30.30  WCI   9
PHILIP         CLOUDY    17   9  70 NE13      30.39S WCI   4
PINE RIDGE     CLOUDY    30  22  72 CALM      30.26F
SPEARFISH      PTSUNNY   19  12  73 CALM      30.24F
WINNER         CLOUDY    23  15  71 N17       30.36R WCI   9
$$

SDZ004>011-016>023-039-040-182100-
NORTHEAST SOUTH DAKOTA

CITY           SKY/WX    TMP DP  RH WIND       PRES   REMARKS
ABERDEEN       SUNNY     10   0  63 N16       30.46S WCI  -7
WATERTOWN      CLOUDY    10   2  69 N16       30.37R WCI  -7
BROOKINGS      LGT SNOW  16   9  74 N14       30.36S WCI   2
SISSETON         N/A     10   3  73 N15       30.43R WCI  -7
$$

SDZ017-020-022-023-036>040-048>070-182100-
SOUTHEAST SOUTH DAKOTA

CITY           SKY/WX    TMP DP  RH WIND       PRES   REMARKS
SIOUX FALLS    CLOUDY    24  15  68 N13       30.36S WCI  12
HURON          LGT SNOW  12   6  77 N15       30.44R WCI  -4
CHAMBERLAIN    CLOUDY    22  16  75 N13       30.39S WCI  10
MADISON        FLURRIES  16  16 100 N15       30.36S WCI   1
MITCHELL       CLOUDY    19  12  74 N15       30.42R WCI   5
YANKTON        PTSUNNY   31  22  69 N13       30.36F WCI  21
$$

ABBREVIATIONS USED IN REMARKS
   TC - TEMPERATURE IN CELSIUS
  WCI - WIND CHILL INDEX
   HX - HEAT INDEX
  VSB - VISIBILITY




USA.gov is the U.S. government's official web portal to all federal, state and local government web resources and services.